Showing default

YUNHAI 2-1B, 43910

Orbit data source: Space-Track

YUNHAI 2-1B, 43910 is a payload satellite owned by CASC (CN) in LEO that was launched on Sat, 29 Dec 2018 UTC via a CHANG ZHENG 2D/YZ-3 launch vehicle from the Jiuquan Satellite Launch Center, China (JSC). Payload-class satellites include a variety of spacecraft equipped with specific instruments for various scientific and technological missions. These include communications satellites like Starlink; space stations such as the ISS; scientific satellites like the Hubble; Earth observation satellites from companies like Planet Labs, Umbra, and HawkEye 360; GPS; miniature CubeSats for education and research; and military/defense satellites.

Loading next visibility...
Identifier
43910, 2018-112B
Orbit
LEO
Country
Flag of CNCN / PRC
Related business
Manufacturer
DFH Shenzhen
Mission
Operational Defense Meteo Radio Occ.
Bus & Motor
YH-2, Unknown motor
Mass
~100 kg wet, ~100 kg dry
Launch date (UTC)
2018-12-29 (7 years ago)
Launch vehicle
CHANG ZHENG 2D/YZ-3
Launch site
Jiuquan Satellite Launch Center, China (JSC)
Object type
Payload
Rocket body
Debris
Shape & HBR
Box + 2 Pan, 0.5 m
Radar Cross Section
0.166 m², Large (>1 m²)

Expand to show TLE details & history
Last TLE update: 22 hours ago

TLE from 22 hours ago
0 YUNHAI 2-1B
1 43910U 18112B   26172.52937595 -.00000168  00000-0 -23647-5 0  9997
2 43910  50.0110  89.4210 0004745 242.8726 117.1705 14.29013272390860
Epoch: 2026-06-21T12:42Z
TLE epoch observation values (Epoch: 2026-06-21T12:42:18.082Z)
Latitude
-0.00005°
Longitude
-10.88272°
Altitude
797.118 km
Speed
7.455 km/s
True Right ascension
05h 57m 41s
True Declination
0° 00' 00"
Sunlit
Object was in daylight at epoch
Visualization orbit readout
Latitude
Unknown
Longitude
Unknown
Altitude
Unknown
Speed
Unknown
Apparent Right ascension
Unknown
Apparent Declination
Unknown
Sunlit
N/A
Visualization observer readout
Local Sidereal Time
21:40:39
Azimuth
Unknown
Elevation
Unknown
Doppler factor
Unknown
Orbital elements
Apogee altitude
799.173 km
Perigee altitude
792.365 km
Semi-major axis
7,173.906 km
Eccentricity
0.00047
Inclination
50.011°
RAAN
89.421°
Arg. of periapsis
242.8726°
True anomaly
117.21886°
Mean anomaly
117.1705°
Eccentric anomaly
117.19468°
Mean motion
3.57199 °/min
Orbital period
100.78 mins
BSTAR
-0.0000023647
Loading maneuver chart data...
Computing Atmospheric mass density...
Loading historical data...
Loading historical data...
Loading historical data...
Loading historical data...
Loading historical data...
Loading historical data...
Loading historical data...

Documentation

Showing up to 5 results
|